Tracking 20942 objects as of 10-Jul-2020
HD Live streaming from Space Station
objects crossing your sky now

GORIZONT 6

Track GORIZONT 6 now!
GORIZONT 6 is classified as:


NORAD ID: 13624
Int'l Code: 1982-103A
Perigee: 35,782.9 km
Apogee: 35,792.2 km
Inclination: 11.9 °
Period: 1,435.8 minutes
Semi major axis: 42158 km
RCS: 3.1622 m2 (large)
Launch date: October 20, 1982
Source: Commonwealth of Independent States (former USSR) (CIS)
Launch site: TYURATAM MISSILE AND SPACE COMPLEX (TTMTR)
aabbcc
Your satellite tracking list
Your tracking list is empty




NASA's NSSDC Master Catalog

Two Line Element Set (TLE):
1 13624U 82103A   20191.40042431 -.00000249 +00000-0 +00000-0 0  9997
2 13624 011.8795 321.5879 0001107 068.4559 008.3845 01.00293867099204
Source of the keplerian elements: AFSPC